Showing default

O3B FM4, 39189

Orbit data source: Space-Track

O3B FM4, 39189 is a payload satellite owned by O3B (JE) that was launched on Tue, 25 Jun 2013 UTC via a SOYUZ-ST-B launch vehicle from the French Guiana (FRGUI). Payload-class satellites include a variety of spacecraft equipped with specific instruments for various scientific and technological missions. These include communications satellites like Starlink; space stations such as the ISS; scientific satellites like the Hubble; Earth observation satellites from companies like Planet Labs, Umbra, and HawkEye 360; GPS; miniature CubeSats for education and research; and military/defense satellites.

Loading next visibility...
Identifier
39189, 2013-031B
Orbit
Active
Country
Flag of UnknownUnknown / O3B
Related business
Manufacturer
Thales Alenia
Mission
Operational Commercial Communications
Bus & Motor
PRISMA?, LS-400 AOCS?
Mass
700 kg wet, ~500 kg dry
Launch date (UTC)
2013-06-25 (12 years ago)
Launch vehicle
SOYUZ-ST-B
Launch site
French Guiana (FRGUI)
Object type
Payload
Rocket body
Debris
Shape & HBR
Trap Box + 2 Pan, 6.0 m
Radar Cross Section
21.980 m², Large (>1 m²)

Expand to show TLE details & history
Last TLE update: 1 day ago

TLE from 1 day ago
0 O3B FM4
1 39189U 13031B   25259.90874014 -.00000030  00000-0  00000-0 0  9998
2 39189   0.0631   0.8852 0003581 214.6056 144.4852  5.00115033223380
Epoch: 2025-09-16T21:48Z
TLE epoch observation values (Epoch: 2025-09-16T21:48:35.148Z)
Latitude
-0.00291°
Longitude
36.76125°
Altitude
8,068.593 km
Speed
5.253 km/s
True Right ascension
23h 59m 59s
True Declination
0° 00' 10"
Sunlit
Object was in full shadow at epoch
Visualization orbit readout
Latitude
Unknown
Longitude
Unknown
Altitude
Unknown
Speed
Unknown
Apparent Right ascension
Unknown
Apparent Declination
Unknown
Sunlit
N/A
Visualization observer readout
Local Sidereal Time
14:08:27
Azimuth
Unknown
Elevation
Unknown
Doppler factor
Unknown
Orbital elements
Apogee altitude
8,074.131 km
Perigee altitude
8,063.784 km
Semi-major axis
14,447.095 km
Eccentricity
0.00036
Inclination
0.0631°
RAAN
0.8852°
Arg. of periapsis
214.6056°
True anomaly
144.50903°
Mean anomaly
144.4852°
Eccentric anomaly
144.49712°
Mean motion
1.24989 °/min
Orbital period
288.02 mins
BSTAR
0
Loading maneuver chart data...
Computing Atmospheric mass density...
Loading historical data...
Loading historical data...
Loading historical data...
Loading historical data...
Loading historical data...
Loading historical data...
Loading historical data...
Other satellites on launch #31 in the year 2013 (2013-06-25 UTC)

Documentation

Showing up to 5 results
|